EW1582 Weather Reports


Display with metric or nautical units.
time (UTC)temp
F
wind
direction
speed
MPH
gust
MPH
rain 1hr
in
rain 24hr
in
rain mn
in
humidity
%
barometer
mb
20200712065350 60 290 0.0 0.0 0.00 0.00 0.00 68 1014.9
20200712064853 61 289 0.0 0.0 0.00 0.00 0.00 67 1014.8
20200712064402 61 290 0.0 0.0 0.00 0.00 0.00 67 1014.8
20200712063908 62 290 0.0 0.0 0.00 0.00 0.00 65 1014.9
20200712063400 62 290 0.0 0.0 0.00 0.00 0.00 65 1014.8
20200712062907 63 290 0.0 0.0 0.00 0.00 0.00 64 1014.8
20200712062355 63 312 0.0 0.0 0.00 0.00 0.00 64 1014.8
20200712061905 63 293 0.0 0.0 0.00 0.00 0.00 64 1014.8
20200712061407 63 353 0.0 0.0 0.00 0.00 0.00 64 1014.8
20200712060853 63 356 0.0 0.0 0.00 0.00 0.00 64 1014.8
20200712060355 63 339 0.0 0.0 0.00 0.00 0.00 63 1014.8
20200712055859 64 322 0.0 0.0 0.00 0.00 0.00 63 1014.8
20200712055400 64 320 0.0 0.0 0.00 0.00 0.00 62 1014.8
20200712054907 64 296 0.0 0.0 0.00 0.00 0.00 62 1014.8
20200712054354 64 298 0.0 0.0 0.00 0.00 0.00 61 1014.8
20200712053856 64 302 0.0 0.0 0.00 0.00 0.00 61 1014.7
20200712053352 65 298 0.0 0.0 0.00 0.00 0.00 61 1014.8
20200712052855 65 300 0.0 0.0 0.00 0.00 0.00 61 1014.8
20200712052403 65 308 0.0 0.0 0.00 0.00 0.00 60 1014.8
20200712051903 65 314 0.0 0.0 0.00 0.00 0.00 59 1014.8
20200712051401 65 314 0.0 0.0 0.00 0.00 0.00 59 1014.8
20200712050904 66 319 0.0 0.0 0.00 0.00 0.00 58 1014.8
20200712050401 66 304 0.0 0.0 0.00 0.00 0.00 58 1014.8
20200712045856 67 319 0.0 0.0 0.00 0.00 0.00 57 1014.8
20200712045357 67 307 0.0 0.0 0.00 0.00 0.00 57 1014.7
20200712044901 67 307 0.0 0.0 0.00 0.00 0.00 56 1014.6
20200712044356 67 324 0.0 0.0 0.00 0.00 0.00 56 1014.6
20200712043858 67 289 0.0 0.0 0.00 0.00 0.00 56 1014.6
20200712043401 68 282 0.0 0.0 0.00 0.00 0.00 55 1014.6
20200712042850 68 319 0.0 0.0 0.00 0.00 0.00 55 1014.5
20200712042350 69 304 0.0 0.0 0.00 0.00 0.00 54 1014.5
20200712041854 69 293 0.0 1.0 0.00 0.00 0.00 53 1014.5
20200712041359 70 304 0.0 1.0 0.00 0.00 0.00 52 1014.4
20200712040852 0 299 0.0 0.0 0.00 0.00 0.00 1014.4
20200712040356 0 297 0.0 0.0 0.00 0.00 0.00 1014.4
20200712035853 0 295 0.0 0.0 0.00 0.00 0.00 1014.3
20200712035354 -90 295 0.0 0.0 0.00 0.00 0.00 1014.3
20200712034900 0 314 0.0 0.0 0.00 0.00 0.00 1014.3
20200712034402 74 298 0.0 0.0 0.00 0.00 0.00 45 1014.2
20200712033909 75 304 0.0 0.0 0.00 0.00 0.00 44 1014.2
20200712033354 76 302 0.0 0.0 0.00 0.00 0.00 43 1014.1
20200712032900 77 294 0.0 0.0 0.00 0.00 0.00 42 1014.0
20200712032406 78 293 0.0 0.0 0.00 0.00 0.00 41 1014.0
20200712031905 79 246 0.0 1.0 0.00 0.00 0.00 39 1014.1
20200712031407 81 295 0.0 1.0 0.00 0.00 0.00 37 1014.0
20200712030909 82 328 0.0 3.0 0.00 0.00 0.00 36 1014.0
20200712030354 83 281 0.0 3.0 0.00 0.00 0.00 35 1014.0
20200712025857 84 313 0.0 2.0 0.00 0.00 0.00 34 1013.9
20200712025359 85 296 0.0 1.0 0.00 0.00 0.00 33 1014.0
20200712024905 85 293 0.0 3.0 0.00 0.00 0.00 32 1014.0
20200712024407 86 300 0.0 3.0 0.00 0.00 0.00 30 1013.9
20200712023850 87 303 0.0 3.0 0.00 0.00 0.00 29 1013.9
20200712023352 88 304 0.0 1.0 0.00 0.00 0.00 28 1013.9
20200712022853 89 292 0.0 0.0 0.00 0.00 0.00 27 1013.8
20200712022358 89 264 0.0 0.0 0.00 0.00 0.00 27 1013.9
20200712021901 89 284 0.0 3.0 0.00 0.00 0.00 26 1013.9
20200712021357 90 293 0.0 3.0 0.00 0.00 0.00 25 1013.9
20200712020859 90 280 0.0 2.0 0.00 0.00 0.00 24 1013.9
20200712020405 91 305 0.0 3.0 0.00 0.00 0.00 24 1013.9
20200712015850 91 289 0.0 3.0 0.00 0.00 0.00 23 1013.9
20200712015410 91 250 0.0 3.0 0.00 0.00 0.00 20 1013.8
20200712014853 92 326 0.0 2.0 0.00 0.00 0.00 19 1013.8
20200712014359 93 295 0.0 3.0 0.00 0.00 0.00 21 1013.8
20200712013900 93 281 0.0 3.0 0.00 0.00 0.00 21 1013.8
20200712013357 93 241 0.0 2.0 0.00 0.00 0.00 21 1013.8
20200712012901 93 261 0.0 4.0 0.00 0.00 0.00 21 1013.8
20200712012408 93 273 1.0 4.0 0.00 0.00 0.00 19 1013.8
20200712011854 94 328 1.0 5.0 0.00 0.00 0.00 18 1013.9
20200712011354 94 314 1.0 5.0 0.00 0.00 0.00 20 1013.9
20200712010901 94 335 1.0 4.0 0.00 0.00 0.00 18 1013.9
20200712010406 94 310 1.0 6.0 0.00 0.00 0.00 17 1013.9
20200712005905 94 239 1.0 6.0 0.00 0.00 0.00 18 1013.9
20200712005407 95 302 0.0 5.0 0.00 0.00 0.00 18 1014.0
20200712004853 95 274 1.0 4.0 0.00 0.00 0.00 16 1014.0
20200712004354 95 239 0.0 5.0 0.00 0.00 0.00 16 1014.1
20200712003853 95 328 0.0 5.0 0.00 0.00 0.00 16 1014.2
20200712003356 95 270 1.0 5.0 0.00 0.00 0.00 15 1014.2
20200712002856 94 337 0.0 6.0 0.00 0.00 0.00 14 1014.3
20200712002357 95 304 0.0 7.0 0.00 0.00 0.00 14 1014.3
20200712001858 94 299 1.0 7.0 0.00 0.00 0.00 13 1014.4
20200712001401 94 259 2.0 8.0 0.00 0.00 0.00 12 1014.4
20200712000905 94 291 1.0 8.0 0.00 0.00 0.00 13 1014.5
20200712000350 94 283 1.0 7.0 0.00 0.00 0.00 14 1014.6
20200711235851 94 299 1.0 5.0 0.00 0.00 0.00 12 1014.7
20200711235354 94 252 2.0 7.0 0.00 0.00 0.00 13 1014.8
20200711234853 94 257 2.0 8.0 0.00 0.00 0.00 14 1014.8
20200711234359 94 276 3.0 8.0 0.00 0.00 0.00 14 1014.8
20200711233905 94 255 1.0 10.0 0.00 0.00 0.00 15 1014.9
20200711233358 94 241 2.0 10.0 0.00 0.00 0.00 14 1014.9
20200711232906 94 209 3.0 9.0 0.00 0.00 0.00 14 1015.0
20200711232408 93 256 1.0 8.0 0.00 0.00 0.00 17 1015.0
20200711231853 93 169 1.0 8.0 0.00 0.00 0.00 17 1015.0
20200711231353 93 251 1.0 7.0 0.00 0.00 0.00 17 1015.0
20200711230858 93 315 1.0 7.0 0.00 0.00 0.00 17 1015.0
20200711230404 93 326 1.0 8.0 0.00 0.00 0.00 19 1015.1
20200711225905 93 278 4.0 9.0 0.00 0.00 0.00 18 1015.1
20200711225407 93 280 1.0 9.0 0.00 0.00 0.00 24 1015.2
20200711224851 93 299 3.0 9.0 0.00 0.00 0.00 23 1015.1
20200711224405 93 294 1.0 6.0 0.00 0.00 0.00 23 1015.1
20200711223850 94 322 1.0 5.0 0.00 0.00 0.00 22 1015.1
20200711223354 93 307 0.0 7.0 0.00 0.00 0.00 24 1015.2
20200711222858 93 285 2.0 7.0 0.00 0.00 0.00 22 1015.2
20200711222402 94 289 1.0 7.0 0.00 0.00 0.00 22 1015.2
20200711221902 94 281 0.0 5.0 0.00 0.00 0.00 21 1015.3
20200711221407 94 241 1.0 9.0 0.00 0.00 0.00 20 1015.3
20200711220906 95 205 1.0 9.0 0.00 0.00 0.00 22 1015.4
20200711220409 94 278 1.0 7.0 0.00 0.00 0.00 21 1015.4
20200711215850 94 307 1.0 7.0 0.00 0.00 0.00 22 1015.4
20200711215354 94 277 2.0 7.0 0.00 0.00 0.00 22 1015.4
20200711214858 95 278 1.0 7.0 0.00 0.00 0.00 23 1015.3
20200711214358 94 259 2.0 10.0 0.00 0.00 0.00 25 1015.3
20200711213903 94 300 4.0 10.0 0.00 0.00 0.00 23 1015.4
20200711213445 94 298 1.0 6.0 0.00 0.00 0.00 24 1015.4
20200711212407 95 288 0.0 8.0 0.00 0.00 0.00 24 1015.5
20200711211851 93 238 0.0 9.0 0.00 0.00 0.00 26 1015.5
20200711211353 93 307 2.0 9.0 0.00 0.00 0.00 26 1015.5
20200711210858 93 266 1.0 6.0 0.00 0.00 0.00 25 1015.6
20200711210401 93 297 0.0 4.0 0.00 0.00 0.00 25 1015.5
20200711205900 93 260 0.0 5.0 0.00 0.00 0.00 25 1015.5
20200711205405 93 302 1.0 5.0 0.00 0.00 0.00 25 1015.6
20200711204850 93 250 0.0 7.0 0.00 0.00 0.00 26 1015.7
20200711204350 93 330 1.0 7.0 0.00 0.00 0.00 26 1015.8
20200711203854 93 255 1.0 6.0 0.00 0.00 0.00 25 1015.9
20200711203356 92 307 1.0 7.0 0.00 0.00 0.00 27 1015.8
20200711202901 93 242 0.0 7.0 0.00 0.00 0.00 27 1015.9
20200711202405 92 210 2.0 7.0 0.00 0.00 0.00 24 1016.0
20200711201855 92 264 1.0 5.0 0.00 0.00 0.00 24 1016.0
20200711201357 92 279 0.0 8.0 0.00 0.00 0.00 25 1016.0
20200711200904 91 238 2.0 8.0 0.00 0.00 0.00 26 1016.2
20200711200406 91 287 1.0 6.0 0.00 0.00 0.00 28 1016.2
20200711195850 91 280 0.0 6.0 0.00 0.00 0.00 28 1016.2
20200711195352 90 310 0.0 6.0 0.00 0.00 0.00 29 1016.3
20200711194853 90 249 0.0 4.0 0.00 0.00 0.00 30 1016.3
20200711194354 89 302 1.0 4.0 0.00 0.00 0.00 31 1016.2
20200711193856 89 218 0.0 3.0 0.00 0.00 0.00 31 1016.3
20200711193359 89 252 0.0 1.0 0.00 0.00 0.00 32 1016.3
20200711192905 88 316 0.0 8.0 0.00 0.00 0.00 33 1016.4
20200711192404 88 278 1.0 8.0 0.00 0.00 0.00 33 1016.4
20200711191906 88 237 0.0 3.0 0.00 0.00 0.00 33 1016.4
20200711191407 88 347 0.0 3.0 0.00 0.00 0.00 34 1016.4
20200711190852 87 217 0.0 3.0 0.00 0.00 0.00 34 1016.4
20200711190409 87 261 0.0 5.0 0.00 0.00 0.00 34 1016.4
20200711185850 87 269 0.0 5.0 0.00 0.00 0.00 36 1016.5
20200711185355 87 259 0.0 4.0 0.00 0.00 0.00 36 1016.4
20200711184855 87 318 0.0 4.0 0.00 0.00 0.00 36 1016.5
20200711184357 86 291 0.0 2.0 0.00 0.00 0.00 37 1016.5
20200711183901 85 306 0.0 1.0 0.00 0.00 0.00 37 1016.5
20200711183403 85 245 0.0 0.0 0.00 0.00 0.00 39 1016.5
20200711182907 83 273 0.0 3.0 0.00 0.00 0.00 41 1016.5
20200711182350 82 218 0.0 3.0 0.00 0.00 0.00 42 1016.4
20200711181854 82 288 0.0 1.0 0.00 0.00 0.00 41 1016.5
20200711181402 82 296 0.0 0.0 0.00 0.00 0.00 42 1016.5
20200711180859 82 294 0.0 4.0 0.00 0.00 0.00 43 1016.5
20200711180359 82 235 0.0 4.0 0.00 0.00 0.00 43 1016.5
20200711175859 82 261 0.0 0.0 0.00 0.00 0.00 43 1016.5
20200711175403 81 39 0.0 0.0 0.00 0.00 0.00 44 1016.5
20200711174908 80 321 0.0 0.0 0.00 0.00 0.00 45 1016.5
20200711174351 79 263 0.0 3.0 0.00 0.00 0.00 47 1016.4
20200711173850 79 299 0.0 0.0 0.00 0.00 0.00 48 1016.5
20200711173409 78 252 0.0 2.0 0.00 0.00 0.00 48 1016.4
20200711172850 78 276 0.0 2.0 0.00 0.00 0.00 48 1016.5
20200711172353 78 240 0.0 1.0 0.00 0.00 0.00 50 1016.5
20200711171858 77 307 0.0 3.0 0.00 0.00 0.00 50 1016.5
20200711171355 76 308 1.0 3.0 0.00 0.00 0.00 50 1016.4
20200711170858 76 225 0.0 2.0 0.00 0.00 0.00 52 1016.4
20200711170401 75 255 0.0 0.0 0.00 0.00 0.00 52 1016.5
20200711165857 75 279 0.0 3.0 0.00 0.00 0.00 53 1016.5
20200711165400 74 231 0.0 3.0 0.00 0.00 0.00 54 1016.4
20200711164903 74 252 0.0 2.0 0.00 0.00 0.00 54 1016.3
20200711164401 74 32 0.0 0.0 0.00 0.00 0.00 55 1016.3
20200711163900 73 344 0.0 0.0 0.00 0.00 0.00 55 1016.3
20200711163400 72 307 0.0 0.0 0.00 0.00 0.00 56 1016.2
20200711162902 72 294 0.0 1.0 0.00 0.00 0.00 57 1016.3
20200711162405 71 276 0.0 1.0 0.00 0.00 0.00 59 1016.3
20200711161909 71 318 0.0 0.0 0.00 0.00 0.00 59 1016.3
20200711161354 70 273 0.0 0.0 0.00 0.00 0.00 60 1016.3
20200711160900 69 255 0.0 0.0 0.00 0.00 0.00 60 1016.3
20200711160406 69 252 0.0 0.0 0.00 0.00 0.00 61 1016.3
20200711155909 69 233 0.0 0.0 0.00 0.00 0.00 61 1016.3
20200711155404 68 307 0.0 0.0 0.00 0.00 0.00 60 1016.3
20200711154908 69 341 0.0 0.0 0.00 0.00 0.00 60 1016.2
20200711154353 68 295 0.0 0.0 0.00 0.00 0.00 61 1016.2
20200711153856 67 256 0.0 0.0 0.00 0.00 0.00 62 1016.2
20200711153402 66 297 0.0 0.0 0.00 0.00 0.00 62 1016.2
20200711152905 66 298 0.0 0.0 0.00 0.00 0.00 63 1016.3
20200711152409 66 261 0.0 0.0 0.00 0.00 0.00 65 1016.3
20200711151905 65 328 0.0 0.0 0.00 0.00 0.00 65 1016.3
20200711151409 64 300 0.0 0.0 0.00 0.00 0.00 66 1016.2
20200711150850 63 309 0.0 0.0 0.00 0.00 0.00 66 1016.2
20200711150354 63 287 0.0 0.0 0.00 0.00 0.00 68 1016.2
20200711145857 63 332 0.0 0.0 0.00 0.00 0.00 68 1016.2
20200711145401 62 310 0.0 0.0 0.00 0.00 0.00 69 1016.2
20200711144904 62 290 0.0 0.0 0.00 0.00 0.00 68 1016.2
20200711144353 61 325 0.0 0.0 0.00 0.00 0.00 68 1016.1
20200711143852 62 295 0.0 0.0 0.00 0.00 0.00 68 1016.1
20200711143355 62 307 0.0 0.0 0.00 0.00 0.00 66 1016.1
20200711142900 62 76 0.0 0.0 0.00 0.00 0.00 63 1016.0
20200711142405 62 83 0.0 0.0 0.00 0.00 0.00 62 1016.0
20200711141909 61 83 0.0 0.0 0.00 0.00 0.00 66 1016.1
20200711141405 60 82 0.0 0.0 0.00 0.00 0.00 67 1016.0
20200711140909 59 82 0.0 0.0 0.00 0.00 0.00 67 1016.0
20200711140352 59 77 0.0 0.0 0.00 0.00 0.00 66 1015.9
20200711135855 58 77 0.0 0.0 0.00 0.00 0.00 63 1015.9
20200711135402 58 77 0.0 0.0 0.00 0.00 0.00 62 1015.8
20200711134906 57 79 0.0 0.0 0.00 0.00 0.00 64 1015.8
20200711134351 57 97 0.0 0.0 0.00 0.00 0.00 64 1015.8
20200711133854 56 75 0.0 0.0 0.00 0.00 0.00 66 1015.8
20200711133354 55 80 0.0 0.0 0.00 0.00 0.00 67 1015.9
20200711132859 55 82 0.0 0.0 0.00 0.00 0.00 69 1015.8
20200711132400 55 80 0.0 0.0 0.00 0.00 0.00 80 1015.8
20200711131902 55 78 0.0 0.0 0.00 0.00 0.00 81 1015.8
20200711131350 55 89 0.0 0.0 0.00 0.00 0.00 81 1015.8
20200711130857 55 79 0.0 0.0 0.00 0.00 0.00 79 1015.8
20200711130404 55 79 0.0 0.0 0.00 0.00 0.00 79 1015.7
20200711125903 55 122 0.0 0.0 0.00 0.00 0.00 81 1015.6
20200711125409 55 84 0.0 0.0 0.00 0.00 0.00 81 1015.7
20200711124850 55 99 0.0 0.0 0.00 0.00 0.00 80 1015.6
20200711124358 55 98 0.0 0.0 0.00 0.00 0.00 80 1015.6
20200711123905 55 79 0.0 0.0 0.00 0.00 0.00 80 1015.5
20200711123410 55 83 0.0 0.0 0.00 0.00 0.00 80 1015.4
20200711122858 54 84 0.0 0.0 0.00 0.00 0.00 78 1015.4
20200711122404 54 84 0.0 0.0 0.00 0.00 0.00 76 1015.4
20200711121853 55 83 0.0 0.0 0.00 0.00 0.00 76 1015.3
20200711121404 55 82 0.0 0.0 0.00 0.00 0.00 75 1015.2
20200711120911 56 113 0.0 0.0 0.00 0.00 0.00 76 1015.1
20200711120353 56 113 0.0 0.0 0.00 0.00 0.00 80 1015.0
20200711115859 56 113 0.0 0.0 0.00 0.00 0.00 80 1015.0
20200711115406 56 113 0.0 0.0 0.00 0.00 0.00 79 1015.0
20200711114859 56 121 0.0 0.0 0.00 0.00 0.00 80 1014.9
20200711114405 56 120 0.0 0.0 0.00 0.00 0.00 80 1014.9
20200711113855 56 103 0.0 0.0 0.00 0.00 0.00 80 1014.8
20200711113405 57 109 0.0 0.0 0.00 0.00 0.00 79 1014.8
20200711112855 57 115 0.0 0.0 0.00 0.00 0.00 79 1014.8
20200711111357 58 114 0.0 0.0 0.00 0.00 0.00 78 1014.7
20200711110909 58 94 0.0 0.0 0.00 0.00 0.00 78 1014.6
20200711110355 58 103 0.0 0.0 0.00 0.00 0.00 78 1014.7
20200711105904 58 115 0.0 0.0 0.00 0.00 0.00 79 1014.6
20200711105350 58 101 0.0 0.0 0.00 0.00 0.00 78 1014.6
20200711104900 58 117 0.0 0.0 0.00 0.00 0.00 78 1014.6
20200711104409 58 106 0.0 0.0 0.00 0.00 0.00 79 1014.6
20200711103900 58 96 0.0 0.0 0.00 0.00 0.00 78 1014.6
20200711103409 58 91 0.0 0.0 0.00 0.00 0.00 77 1014.6
20200711102857 58 97 0.0 0.0 0.00 0.00 0.00 78 1014.6
20200711102407 58 104 0.0 0.0 0.00 0.00 0.00 77 1014.6
20200711101855 58 142 0.0 0.0 0.00 0.00 0.00 77 1014.7
20200711101401 58 122 0.0 0.0 0.00 0.00 0.00 76 1014.6
20200711100909 58 96 0.0 0.0 0.00 0.00 0.00 75 1014.6
20200711100356 59 101 0.0 0.0 0.00 0.00 0.00 75 1014.7
20200711095903 59 79 0.0 0.0 0.00 0.00 0.00 74 1014.7
20200711095351 59 111 0.0 0.0 0.00 0.00 0.00 74 1014.7
20200711094851 59 74 0.0 0.0 0.00 0.00 0.00 73 1014.7
20200711094402 59 113 0.0 0.0 0.00 0.00 0.00 73 1014.7
20200711093852 59 99 0.0 0.0 0.00 0.00 0.00 71 1014.7
20200711093356 59 128 0.0 0.0 0.00 0.00 0.00 70 1014.7
20200711092905 60 129 0.0 0.0 0.00 0.00 0.00 69 1014.7
20200711092358 60 122 0.0 0.0 0.00 0.00 0.00 69 1014.7
20200711091917 60 68 0.0 0.0 0.00 0.00 0.00 68 1014.7
20200711091359 60 101 0.0 0.0 0.00 0.00 0.00 67 1014.7
20200711090909 60 91 0.0 0.0 0.00 0.00 0.00 67 1014.7
20200711090354 60 86 0.0 0.0 0.00 0.00 0.00 67 1014.7
20200711085903 59 79 0.0 0.0 0.00 0.00 0.00 67 1014.7
20200711085354 59 43 0.0 0.0 0.00 0.00 0.00 68 1014.8
20200711084857 58 314 0.0 0.0 0.00 0.00 0.00 70 1014.8
20200711084404 58 307 0.0 0.0 0.00 0.00 0.00 69 1014.7
20200711083855 59 307 0.0 0.0 0.00 0.00 0.00 68 1014.7
20200711083407 59 307 0.0 0.0 0.00 0.00 0.00 64 1014.8
20200711082900 60 307 0.0 0.0 0.00 0.00 0.00 67 1014.8
20200711082409 61 307 0.0 0.0 0.00 0.00 0.00 67 1014.8
20200711081858 61 307 0.0 0.0 0.00 0.00 0.00 63 1014.8
20200711081406 61 34 0.0 0.0 0.00 0.00 0.00 61 1014.8
20200711080852 62 34 0.0 0.0 0.00 0.00 0.00 59 1014.8
20200711080400 62 34 0.0 0.0 0.00 0.00 0.00 57 1014.8
20200711075908 62 48 0.0 0.0 0.00 0.00 0.00 58 1015.0
20200711075359 62 37 0.0 0.0 0.00 0.00 0.00 63 1015.0
20200711074908 62 32 0.0 0.0 0.00 0.00 0.00 64 1015.0
20200711074357 61 29 0.0 0.0 0.00 0.00 0.00 64 1015.0
20200711073908 61 29 0.0 0.0 0.00 0.00 0.00 63 1015.0
20200711073357 61 29 0.0 0.0 0.00 0.00 0.00 66 1015.1
20200711072904 61 29 0.0 0.0 0.00 0.00 0.00 63 1015.1
20200711072352 62 29 0.0 0.0 0.00 0.00 0.00 61 1015.0
20200711071903 62 29 0.0 0.0 0.00 0.00 0.00 61 1015.0
20200711071351 62 29 0.0 0.0 0.00 0.00 0.00 62 1015.0
20200711070902 62 28 0.0 0.0 0.00 0.00 0.00 62 1015.0
20200711070352 62 29 0.0 0.0 0.00 0.00 0.00 61 1015.0
20200711065908 62 29 0.0 0.0 0.00 0.00 0.00 62 1014.9